Content
SEND FEEDBACK

Daily
Averages
Monthly
Summary
Germany

FRANKFURT, GERMANY


Home > Europe > Germany
Elevation: 371 feet     Latitude: 50 03N     Longitude: 008 36E

WEATHER
 
SELECT A DAY
Number of Records: 368,278;   Date Range: 7/1/96 - 10/22/14
 
SHARE

PRINT THIS DATA

[ ← Previous Day ]
WEATHER ALMANAC - JANUARY 31, 2013
[ Next Day → ]
[ °C ]   °F
Weather ElementAverageHighLow
Temperature45.9 °F50 °F (2:20 pm)44 °F (8:00 am)
Dewpoint36.8 °F41 °F (4:50 pm)35 °F (1:00 am)
Humidity68.3 %87 % (4:50 pm)52 % (3:00 pm)
Barometer30.00 in30.11 in (6:00 am)29.89 in (3:20 pm)
Wind Speed19.6 mph29.9 mph (3:20 pm)
Wind Gust41.4 mph (3:20 pm)
Weather ElementAverage
Visibility12.2 mi
Wind DirectionSW (229.1 °)

Weather ElementTotal
Precipitation---
Heating Degree Days18 (Base 65)
Averaged from 67 records on January 31, 2013
WEATHER CONDITIONS BREAKOUT
WIND DIRECTION BREAKOUT
WEATHER BY HOUR - JANUARY 31, 2013
[ °C ]   °F
Local TimeTemperatureDewpointHumidityBarometerVisibilityWind DirectionWind SpeedGust SpeedPrecipitationEventsConditions
12:20 AM44.6 °F35.6 °F71 %30.04 in6.2 miWSW (250°)19.6 mph31.1 mphPartly Cloudy
12:50 AM44.6 °F35.6 °F71 %30.04 in6.2 miWSW (240°)19.6 mphPartly Cloudy
1:00 AM45.0 °F35.0 °F59 %30.06 in22.0 miWSW (240°)20.1 mphScattered Clouds
1:20 AM44.6 °F35.6 °F71 %30.04 in6.2 miWSW (240°)19.6 mphScattered Clouds
1:50 AM46.4 °F35.6 °F66 %30.06 in6.2 miSW (230°)21.9 mphMostly Cloudy
2:00 AM46.0 °F36.0 °F57 %30.07 in19.0 miSW (230°)22.4 mphMostly Cloudy
2:20 AM46.4 °F35.6 °F66 %30.06 in6.2 miSW (230°)24.2 mphMostly Cloudy
2:50 AM46.4 °F35.6 °F66 %30.06 in6.2 miWSW (240°)21.9 mphScattered Clouds
3:00 AM45.0 °F35.0 °F58 %30.08 in19.0 miWSW (240°)22.4 mphPartly Cloudy
3:20 AM44.6 °F35.6 °F71 %30.06 in6.2 miWSW (250°)24.2 mphScattered Clouds
3:50 AM44.6 °F35.6 °F71 %30.06 in6.2 miWSW (250°)18.4 mphScattered Clouds
4:20 AM44.6 °F35.6 °F71 %30.06 in6.2 miSW (230°)15.0 mphMostly Cloudy
4:50 AM44.6 °F35.6 °F71 %30.06 in6.2 miSW (220°)12.7 mphMostly Cloudy
5:00 AM45.0 °F36.0 °F61 %30.10 in19.0 miSW (220°)13.4 mphMostly Cloudy
5:20 AM46.4 °F35.6 °F66 %30.06 in6.2 miSSW (210°)13.8 mphMostly Cloudy
5:50 AM46.4 °F35.6 °F66 %30.09 in6.2 miSSW (210°)17.3 mphMostly Cloudy
6:00 AM46.0 °F36.0 °F57 %30.11 in19.0 miSSW (210°)17.9 mphMostly Cloudy
6:20 AM46.4 °F35.6 °F66 %30.09 in6.2 miSW (230°)19.6 mphMostly Cloudy
6:50 AM44.6 °F35.6 °F71 %30.06 in6.2 miSW (230°)17.3 mphMostly Cloudy
7:00 AM45.0 °F35.0 °F58 %30.09 in19.0 miSW (230°)17.9 mphOvercast
7:20 AM44.6 °F35.6 °F71 %30.06 in6.2 miSW (220°)13.8 mphMostly Cloudy
7:50 AM44.6 °F35.6 °F71 %30.09 in6.2 miSW (220°)17.3 mphScattered Clouds
8:00 AM44.0 °F35.0 °F62 %30.10 in19.0 miSW (220°)15.7 mphScattered Clouds
8:20 AM44.6 °F35.6 °F71 %30.09 in6.2 miSSW (200°)11.5 mphMostly Cloudy
8:50 AM44.6 °F35.6 °F71 %30.09 in6.2 miSSW (210°)15.0 mphMostly Cloudy
9:00 AM44.0 °F36.0 °F64 %30.11 in22.0 miSSW (210°)15.7 mphScattered Clouds
9:20 AM44.6 °F35.6 °F71 %30.09 in6.2 miSSW (200°)16.1 mphMostly Cloudy
9:50 AM44.6 °F35.6 °F71 %30.06 in6.2 miSSW (200°)20.7 mphMostly Cloudy
10:20 AM44.6 °F37.4 °F76 %30.06 in6.2 miSSW (210°)20.7 mph32.2 mphMostly Cloudy
10:50 AM44.6 °F37.4 °F76 %30.06 in6.2 miSSW (210°)17.3 mphMostly Cloudy
11:00 AM45.0 °F37.0 °F66 %30.09 in25.0 miSSW (210°)17.9 mphOvercast
11:20 AM44.6 °F37.4 °F76 %30.04 in6.2 miSSW (210°)17.3 mphMostly Cloudy
11:50 AM46.4 °F37.4 °F71 %30.01 in6.2 miSSW (210°)16.1 mph28.8 mphMostly Cloudy
12:00 PM46.0 °F38.0 °F65 %30.04 in22.0 miSSW (210°)15.7 mphOvercast
12:20 PM46.4 °F37.4 °F71 %29.98 in6.2 miSW (230°)24.2 mphMostly Cloudy
12:50 PM46.4 °F37.4 °F71 %29.98 in6.2 miSW (220°)21.9 mph33.4 mphMostly Cloudy
1:00 PM47.0 °F37.0 °F58 %29.99 in31.0 miSW (220°)22.4 mphScattered Clouds
1:20 PM48.2 °F37.4 °F66 %29.95 in6.2 miSW (220°)19.6 mph31.1 mphMostly Cloudy
1:50 PM48.2 °F35.6 °F62 %29.92 in6.2 miSW (220°)24.2 mph36.8 mphMostly Cloudy
2:00 PM48.0 °F36.0 °F53 %29.94 in31.0 miSW (220°)24.6 mphScattered Clouds
2:20 PM50.0 °F35.6 °F58 %29.92 in6.2 miSW (230°)23.0 mphMostly Cloudy
2:50 PM50.0 °F37.4 °F62 %29.92 in6.2 miSW (230°)27.6 mph39.1 mphRainLight Rain
3:00 PM49.0 °F37.0 °F52 %29.92 in25.0 miSW (230°)26.8 mphRainLight Rain
3:20 PM46.4 °F39.2 °F76 %29.89 in6.2 miSW (230°)29.9 mph41.4 mphRainLight Rain
3:50 PM48.2 °F37.4 °F66 %29.89 in6.2 miSW (230°)25.3 mphRainLight Rain
4:20 PM46.4 °F39.2 °F76 %29.89 in6.2 miSW (230°)24.2 mphRainRain
4:50 PM44.6 °F41.0 °F87 %29.89 in6.2 miWSW (240°)12.7 mphRainRain
5:00 PM45.0 °F41.0 °F79 %29.91 in9.0 miWSW (240°)13.4 mphRainRain
5:20 PM46.4 °F41.0 °F81 %29.89 in6.2 miSW (230°)18.4 mphRainRain
5:50 PM46.4 °F41.0 °F81 %29.89 in6.2 miSW (230°)20.7 mphPartly Cloudy
6:00 PM45.0 °F41.0 °F80 %29.91 in31.0 miSW (230°)20.1 mphRainLight Rain
6:20 PM44.6 °F41.0 °F87 %29.89 in6.2 miWSW (240°)17.3 mphPartly Cloudy
6:50 PM46.4 °F39.2 °F76 %29.89 in6.2 miWSW (240°)20.7 mphPartly Cloudy
7:00 PM47.0 °F39.0 °F65 %29.91 in37.0 miWSW (240°)20.1 mphPartly Cloudy
7:20 PM46.4 °F37.4 °F71 %29.89 in6.2 miWSW (240°)20.7 mphPartly Cloudy
7:50 PM46.4 °F37.4 °F71 %29.92 in6.2 miWSW (240°)21.9 mphPartly Cloudy
8:00 PM46.0 °F38.0 °F63 %29.93 in37.0 miWSW (240°)22.4 mphScattered Clouds
8:20 PM46.4 °F37.4 °F71 %29.92 in6.2 miWSW (250°)20.7 mphPartly Cloudy
8:50 PM46.4 °F37.4 °F71 %29.92 inWSW (250°)23.0 mphClear
9:00 PM47.0 °F37.0 °F58 %29.94 in37.0 miWSW (250°)22.4 mphClear
9:20 PM46.4 °F35.6 °F66 %29.92 inWSW (250°)20.7 mphClear
9:50 PM46.4 °F35.6 °F66 %29.95 inWSW (250°)20.7 mphClear
10:20 PM46.4 °F35.6 °F66 %29.95 inWSW (250°)21.9 mphClear
10:50 PM46.4 °F35.6 °F66 %29.95 inWSW (240°)19.6 mphClear
11:00 PM45.0 °F36.0 °F61 %29.96 in37.0 miWSW (240°)17.9 mphScattered Clouds
11:20 PM44.6 °F35.6 °F71 %29.95 inWSW (250°)17.3 mphClear
11:50 PM44.6 °F35.6 °F71 %29.95 inSW (230°)15.0 mphClear
Hourly data recorded from EDDF, located miles away from Frankfurt, Germany







STORIES FROM OUR PARTNERS